This demonstration page uses our WeatherBlox Daily Observations layout. Learn more.

Left ArrowRight Arrow

38.88101, -77.10428

Hourly Observations for July 29, 2016

Temp ( °F °C ) Dew Point ( °F °C ) Humidity (%) Winds ( mph kmh ) Pressure ( in mb ) Visibility ( mi km ) Precip ( " mm )
12:23 am 00:23 Cloudy with Light Rain 77 25 75 23.9 94 94 NNE 6 9 29.83 1010 10 16.0934 0 0.0254
12:52 am 00:52 Cloudy with Light Rain 77 25 75 23.9 94 94 Calm 29.83 1010 10 16.0934 0.01 0.254
1:48 am 01:48 Cloudy 79 26 73 23 84 84 Calm 29.83 1010 10 16.0934 0 0
1:52 am 01:52 Cloudy 78 25.6 75 23.9 90 90 Calm 29.83 1010 10 16.0934 0 0.0254
2:08 am 02:08 Cloudy with Light Rain 79 26 73 23 84 84 VRB 3 6 29.83 1010 10 16.0934 0 0
2:19 am 02:19 Cloudy 78 25.6 74 23.3 87 87 Calm 29.83 1010 10 16.0934 0 0.0254
2:48 am 02:48 Cloudy with Light Rain 79 26 75 24 89 89 NE 7 11 29.8 1009 10 16.0934 0 0
2:52 am 02:52 Cloudy with Light Rain 78 25.6 75 23.9 90 90 NNE 6 9 29.79 1009 10 16.0934 0.01 0.254
3:39 am 03:39 Cloudy with Light Rain 77 25 75 23.9 94 94 NNW 8 13 29.8 1009 10 16.0934 0.01 0.254
3:52 am 03:52 Cloudy with Rain 77 25 74 23.3 90 90 NNW 9 15 29.79 1009 5 8.0467 0.02 0.508
4:11 am 04:11 Cloudy 76 24.4 74 23.3 94 94 NW 8 13 29.8 1009 10 16.0934 0.01 0.254
4:24 am 04:24 Cloudy with Light Rain 75 24 73 23 94 94 WNW 9 15 29.8 1009 4 6.43736 0 0
4:39 am 04:39 Cloudy with Light Rain 76 24.4 74 23.3 94 94 NW 12 19 29.8 1009 4 6.43736 0.04 1.016
4:52 am 04:52 Cloudy with Light Rain 75 23.9 74 23.3 96 96 N 14 22 29.8 1009 6 9.65604 0.06 1.524
4:59 am 04:59 Cloudy with Light Rain 75 23.9 73 22.8 94 94 N 14 22 29.8 1009 10 16.0934 0 0.0254
5:24 am 05:24 Cloudy with Light Rain 75 24 72 22 89 89 N 12 19 29.8 1009 8 12.87472 0 0
5:52 am 05:52 Cloudy 75 23.9 72 22.2 90 90 N 13 20 29.82 1010 10 16.0934 0.01 0.254
5:59 am 05:59 Cloudy 75 23.9 72 22.2 90 90 N 13 20 29.83 1010 10 16.0934 0 0
6:08 am 06:08 Cloudy 75 24 72 22 89 89 N 12 19 29.83 1010 10 16.0934 0 0
6:10 am 06:10 Cloudy 75 24 72 22 89 89 N 12 19 29.83 1010 10 16.0934 0 0
6:20 am 06:20 Cloudy 75 24 72 22 89 89 N 13 20 29.83 1010 10 16.0934 0 0
6:39 am 06:39 Mostly Cloudy 75 23.9 72 22.2 90 90 N 14 22 29.83 1010 10 16.0934 0 0
6:52 am 06:52 Mostly Cloudy 75 23.9 71 21.7 88 88 N 13 20 29.84 1011 10 16.0934 0 0
7:19 am 07:19 Cloudy 75 23.9 72 22.2 90 90 NNW 9 15 29.85 1011 10 16.0934 0 0
7:40 am 07:40 Cloudy 75 24 72 22 89 89 N 12 19 29.88 1012 10 16.0934 0 0
7:52 am 07:52 Cloudy 75 23.9 71 21.7 88 88 N 13 20 29.87 1012 10 16.0934 0 0
8:06 am 08:06 Mostly Cloudy 75 24 72 22 89 89 N 10 17 29.88 1012 10 16.0934 0 0
8:25 am 08:25 Mostly Cloudy 77 25 71 21.7 82 82 N 10 17 29.88 1012 10 16.0934 0 0
8:39 am 08:39 Mostly Cloudy 77 25 72 22.2 85 85 N 12 19 29.88 1012 10 16.0934 0 0
8:52 am 08:52 Mostly Cloudy 77 25 71 21.7 82 82 N 12 19 29.88 1012 10 16.0934 0 0
9:52 am 09:52 Mostly Cloudy 78 25.6 70 21.1 76 76 N 14 22 29.89 1012 10 16.0934 0 0
10:08 am 10:08 Mostly Cloudy 80 26.7 71 21.7 74 74 N 9 15 29.88 1012 10 16.0934 0 0
10:52 am 10:52 Mostly Cloudy 80 26.7 69 20.6 69 69 N 12 19 29.89 1012 10 16.0934 0 0
11:52 am 11:52 Partly Cloudy 84 28.9 70 21.1 63 63 N 7 11 29.88 1012 10 16.0934 0 0
12:52 pm 12:52 Partly Cloudy 86 30 69 20.6 57 57 VRB 5 7 29.87 1012 10 16.0934 0 0
1:52 pm 13:52 Mostly Cloudy 88 31.1 68 20 52 52 VRB 5 7 29.87 1012 10 16.0934 0 0
2:52 pm 14:52 Mostly Cloudy 89 31.7 68 20 50 50 VRB 3 6 29.88 1012 10 16.0934 0 0
3:52 pm 15:52 Partly Cloudy 89 31.7 67 19.4 48 48 ENE 3 6 29.87 1011 10 16.0934 0 0
4:52 pm 16:52 Partly Cloudy 90 32.2 69 20.6 50 50 SSE 5 7 29.87 1011 10 16.0934 0 0
5:52 pm 17:52 Mostly Cloudy 88 31.1 70 21.1 55 55 S 8 13 29.88 1012 10 16.0934 0 0
6:52 pm 18:52 Partly Cloudy 87 30.6 70 21.1 57 57 S 7 11 29.88 1012 10 16.0934 0 0
7:52 pm 19:52 Mostly Sunny 86 30 71 21.7 61 61 S 7 11 29.89 1012 10 16.0934 0 0
8:52 pm 20:52 Mostly Clear 84 28.9 72 22.2 67 67 SSW 7 11 29.9 1013 10 16.0934 0 0
9:52 pm 21:52 Clear 83 28.3 72 22.2 70 70 SW 6 9 29.92 1013 10 16.0934 0 0
10:52 pm 22:52 Clear 82 27.8 72 22.2 72 72 SSE 7 11 29.93 1014 10 16.0934 0 0
11:52 pm 23:52 Clear 81 27.2 71 21.7 72 72 S 7 11 29.94 1014 10 16.0934 0 0

Powered by AerisWeather